GXA167 KMCI-KJQF

Flight info

Callsign GXA167
Flight time 1h 39m
Altitude 39000
Route LAKES5 COU BZM PEGTE
Aircraft A320/M-SDE3FGHIRWY/LB1

Departure

Time 2026-04-19 23:13
Airport Kansas City International Airport (KMCI)

Arrival

Time 2026-04-20 00:53
Airport Concord-Padgett Regional Airport (KJQF)
Time Latitude Longitude Altitude Speed Heading
2026-04-19 22:55 39.29816 -94.69805 1014 ft 0 kts 191°
2026-04-19 23:00 39.29791 -94.69815 1014 ft 4 kts 201°
2026-04-19 23:01 39.29789 -94.69817 1014 ft 0 kts 204°
2026-04-19 23:01 39.29768 -94.69844 1014 ft 9 kts 241°
2026-04-19 23:01 39.29765 -94.69942 1014 ft 12 kts 271°
2026-04-19 23:01 39.29749 -94.70057 1014 ft 13 kts 237°
2026-04-19 23:02 39.29679 -94.70128 1014 ft 12 kts 212°
2026-04-19 23:02 39.29596 -94.70173 1014 ft 17 kts 196°
2026-04-19 23:02 39.29473 -94.70216 1015 ft 18 kts 193°
2026-04-19 23:02 39.29355 -94.70250 1015 ft 17 kts 192°
2026-04-19 23:03 39.29246 -94.70280 1015 ft 15 kts 192°
2026-04-19 23:03 39.29159 -94.70302 1015 ft 5 kts 191°
2026-04-19 23:03 39.29157 -94.70303 1015 ft 0 kts 191°
2026-04-19 23:04 39.29131 -94.70310 1015 ft 5 kts 191°
2026-04-19 23:04 39.29096 -94.70319 1015 ft 5 kts 192°
2026-04-19 23:04 39.29045 -94.70326 1014 ft 11 kts 165°
2026-04-19 23:04 39.29013 -94.70242 1015 ft 13 kts 99°
2026-04-19 23:05 39.29000 -94.70094 1015 ft 17 kts 96°
2026-04-19 23:05 39.28988 -94.69941 1014 ft 17 kts 96°
2026-04-19 23:05 39.28979 -94.69841 1014 ft 16 kts 97°
2026-04-19 23:05 39.28964 -94.69663 1015 ft 14 kts 96°
2026-04-19 23:06 39.28955 -94.69544 1015 ft 13 kts 96°
2026-04-19 23:06 39.28945 -94.69435 1014 ft 12 kts 97°
2026-04-19 23:06 39.28936 -94.69360 1014 ft 0 kts 105°
2026-04-19 23:07 39.28936 -94.69359 1014 ft 1 kts 105°
2026-04-19 23:07 39.28929 -94.69342 1014 ft 0 kts 125°
2026-04-19 23:09 39.28921 -94.69336 1015 ft 5 kts 145°
2026-04-19 23:09 39.28892 -94.69324 1015 ft 0 kts 173°
2026-04-19 23:11 39.28876 -94.69323 1015 ft 4 kts 180°
2026-04-19 23:11 39.28843 -94.69329 1016 ft 8 kts 189°
2026-04-19 23:11 39.28813 -94.69369 1016 ft 6 kts 263°
2026-04-19 23:12 39.28814 -94.69392 1016 ft 0 kts 277°
2026-04-19 23:12 39.28815 -94.69400 1016 ft 6 kts 277°
2026-04-19 23:13 39.28843 -94.69737 1014 ft 79 kts 276°
2026-04-19 23:13 39.28933 -94.70782 1016 ft 152 kts 276°
2026-04-19 23:13 39.29054 -94.72261 1545 ft 169 kts 277°
2026-04-19 23:13 39.29174 -94.73758 2514 ft 166 kts 276°
2026-04-19 23:14 39.29073 -94.75281 3158 ft 182 kts 248°
2026-04-19 23:14 39.28248 -94.76633 3505 ft 209 kts 216°
2026-04-19 23:14 39.26867 -94.77443 3984 ft 235 kts 198°
2026-04-19 23:14 39.25177 -94.77802 4540 ft 260 kts 176°
2026-04-19 23:15 39.23440 -94.77030 5390 ft 273 kts 146°
2026-04-19 23:15 39.22237 -94.75123 6339 ft 282 kts 113°
2026-04-19 23:15 39.21658 -94.72689 7275 ft 287 kts 105°
2026-04-19 23:15 39.21149 -94.70163 8120 ft 295 kts 104°
2026-04-19 23:16 39.20646 -94.67555 8950 ft 305 kts 104°
2026-04-19 23:16 39.20127 -94.64861 9767 ft 314 kts 104°
2026-04-19 23:16 39.19581 -94.62071 10335 ft 332 kts 104°
2026-04-19 23:16 39.18985 -94.59082 10683 ft 356 kts 104°
2026-04-19 23:17 39.18351 -94.55933 11315 ft 368 kts 104°
2026-04-19 23:17 39.17698 -94.52713 12051 ft 375 kts 103°
2026-04-19 23:17 39.17030 -94.49428 12835 ft 381 kts 103°
2026-04-19 23:17 39.16355 -94.46097 13618 ft 387 kts 103°
2026-04-19 23:18 39.15669 -94.42708 14328 ft 394 kts 102°
2026-04-19 23:18 39.14971 -94.39273 15023 ft 398 kts 102°
2026-04-19 23:18 39.14264 -94.35805 15735 ft 403 kts 103°
2026-04-19 23:18 39.13561 -94.32381 16434 ft 407 kts 103°
2026-04-19 23:19 39.12832 -94.28840 17123 ft 411 kts 103°
2026-04-19 23:19 39.12094 -94.25255 17818 ft 415 kts 103°
2026-04-19 23:19 39.11380 -94.21780 18488 ft 419 kts 103°
2026-04-19 23:19 39.10628 -94.18130 19083 ft 424 kts 103°
2026-04-19 23:20 39.09873 -94.14441 19640 ft 428 kts 101°
2026-04-19 23:20 39.09397 -94.10659 20226 ft 429 kts 91°
2026-04-19 23:20 39.09162 -94.06806 20822 ft 433 kts 91°
2026-04-19 23:20 39.08923 -94.02924 21410 ft 437 kts 91°
2026-04-19 23:21 39.08676 -93.99005 21993 ft 441 kts 91°
2026-04-19 23:21 39.08421 -93.95046 22596 ft 445 kts 91°
2026-04-19 23:21 39.08166 -93.91106 23177 ft 449 kts 91°
2026-04-19 23:21 39.07902 -93.87032 23759 ft 453 kts 91°
2026-04-19 23:22 39.07637 -93.82970 24241 ft 457 kts 90°
2026-04-19 23:22 39.07372 -93.78927 24715 ft 461 kts 90°
2026-04-19 23:22 39.07101 -93.74805 25153 ft 465 kts 90°
2026-04-19 23:22 39.06826 -93.70649 25601 ft 468 kts 91°
2026-04-19 23:23 39.06546 -93.66452 26038 ft 471 kts 91°
2026-04-19 23:23 39.06264 -93.62238 26461 ft 474 kts 91°
2026-04-19 23:23 39.05979 -93.58001 26898 ft 477 kts 91°
2026-04-19 23:23 39.05693 -93.53744 27313 ft 479 kts 91°
2026-04-19 23:24 39.05402 -93.49457 27722 ft 482 kts 91°
2026-04-19 23:24 39.05108 -93.45144 28130 ft 485 kts 91°
2026-04-19 23:24 39.04810 -93.40801 28529 ft 488 kts 91°
2026-04-19 23:24 39.04509 -93.36435 28915 ft 491 kts 91°
2026-04-19 23:25 39.04202 -93.32038 29293 ft 494 kts 91°
2026-04-19 23:25 39.03895 -93.27627 29663 ft 497 kts 91°
2026-04-19 23:25 39.03587 -93.23185 30032 ft 500 kts 91°
2026-04-19 23:25 39.03277 -93.18719 30373 ft 502 kts 91°
2026-04-19 23:26 39.02957 -93.14230 30668 ft 505 kts 91°
2026-04-19 23:26 39.02630 -93.09726 30958 ft 507 kts 91°
2026-04-19 23:26 39.02303 -93.05250 31253 ft 509 kts 91°
2026-04-19 23:26 39.01973 -93.00709 31517 ft 512 kts 91°
2026-04-19 23:27 39.01643 -92.96139 31766 ft 515 kts 91°
2026-04-19 23:27 39.01313 -92.91574 32024 ft 517 kts 91°
2026-04-19 23:27 39.00873 -92.86955 32383 ft 519 kts 97°
2026-04-19 23:27 38.99986 -92.82447 32742 ft 521 kts 106°
2026-04-19 23:28 38.98691 -92.78089 33081 ft 522 kts 110°
2026-04-19 23:28 38.97338 -92.73754 33424 ft 522 kts 110°
2026-04-19 23:28 38.95991 -92.69426 33795 ft 522 kts 110°
2026-04-19 23:28 38.94647 -92.65097 34203 ft 522 kts 110°
2026-04-19 23:29 38.93299 -92.60764 34474 ft 523 kts 110°
2026-04-19 23:29 38.91946 -92.56427 34759 ft 523 kts 110°
2026-04-19 23:29 38.90595 -92.52092 35041 ft 523 kts 110°
2026-04-19 23:29 38.89243 -92.47764 35317 ft 523 kts 111°
2026-04-19 23:30 38.87885 -92.43427 35582 ft 523 kts 111°
2026-04-19 23:30 38.86524 -92.39089 35816 ft 523 kts 111°
2026-04-19 23:30 38.85182 -92.34810 36082 ft 523 kts 111°
2026-04-19 23:30 38.83822 -92.30488 36335 ft 523 kts 111°
2026-04-19 23:31 38.82455 -92.26164 36602 ft 524 kts 112°
2026-04-19 23:31 38.81125 -92.21808 36840 ft 524 kts 107°
2026-04-19 23:31 38.80112 -92.17327 37079 ft 524 kts 104°
2026-04-19 23:31 38.79152 -92.12821 37293 ft 524 kts 104°
2026-04-19 23:32 38.78193 -92.08310 37524 ft 524 kts 104°
2026-04-19 23:32 38.77236 -92.03806 37749 ft 524 kts 104°
2026-04-19 23:32 38.76273 -91.99291 37970 ft 525 kts 104°
2026-04-19 23:32 38.75309 -91.94790 38199 ft 525 kts 104°
2026-04-19 23:33 38.74340 -91.90279 38420 ft 525 kts 104°
2026-04-19 23:33 38.73368 -91.85775 38630 ft 525 kts 105°
2026-04-19 23:33 38.72389 -91.81262 38821 ft 525 kts 105°
2026-04-19 23:33 38.71415 -91.76759 38998 ft 526 kts 105°
2026-04-19 23:34 38.70439 -91.72245 39156 ft 526 kts 105°
2026-04-19 23:34 38.69474 -91.67798 39217 ft 526 kts 105°
2026-04-19 23:34 38.67506 -91.58763 39228 ft 527 kts 105°
2026-04-19 23:35 38.65527 -91.49740 39235 ft 527 kts 105°
2026-04-19 23:35 38.63541 -91.40721 39231 ft 527 kts 105°
2026-04-19 23:36 38.61548 -91.31696 39227 ft 528 kts 105°
2026-04-19 23:36 38.59552 -91.22661 39231 ft 528 kts 105°
2026-04-19 23:37 38.57544 -91.13620 39260 ft 529 kts 105°
2026-04-19 23:37 38.55522 -91.04580 39245 ft 529 kts 105°
2026-04-19 23:38 38.53498 -90.95545 39238 ft 529 kts 105°
2026-04-19 23:38 38.51482 -90.86564 39239 ft 529 kts 105°
2026-04-19 23:39 38.49439 -90.77528 39239 ft 530 kts 105°
2026-04-19 23:39 38.47393 -90.68500 39251 ft 530 kts 106°
2026-04-19 23:40 38.45334 -90.59472 39244 ft 530 kts 106°
2026-04-19 23:40 38.43269 -90.50445 39241 ft 530 kts 106°
2026-04-19 23:41 38.41187 -90.41427 39247 ft 530 kts 106°
2026-04-19 23:41 38.39108 -90.32410 39251 ft 530 kts 106°
2026-04-19 23:42 38.37030 -90.23385 39249 ft 530 kts 106°
2026-04-19 23:42 38.34942 -90.14380 39250 ft 530 kts 107°
2026-04-19 23:43 38.32835 -90.05386 39248 ft 530 kts 107°
2026-04-19 23:43 38.30733 -89.96383 39259 ft 530 kts 106°
2026-04-19 23:44 38.28622 -89.87393 39266 ft 531 kts 107°
2026-04-19 23:44 38.26511 -89.78455 39265 ft 531 kts 107°
2026-04-19 23:45 38.24384 -89.69453 39269 ft 531 kts 107°
2026-04-19 23:45 38.22247 -89.60464 39267 ft 531 kts 107°
2026-04-19 23:46 38.20101 -89.51483 39263 ft 531 kts 107°
2026-04-19 23:46 38.17947 -89.42499 39229 ft 531 kts 107°
2026-04-19 23:47 38.15797 -89.33515 39248 ft 531 kts 107°
2026-04-19 23:47 38.13633 -89.24538 39256 ft 532 kts 107°
2026-04-19 23:48 38.11453 -89.15562 39279 ft 532 kts 107°
2026-04-19 23:48 38.09266 -89.06595 39284 ft 532 kts 107°
2026-04-19 23:49 38.07078 -88.97635 39278 ft 532 kts 107°
2026-04-19 23:49 38.04890 -88.88670 39283 ft 532 kts 107°
2026-04-19 23:50 38.02690 -88.79722 39293 ft 532 kts 108°
2026-04-19 23:50 38.00474 -88.70776 39291 ft 531 kts 108°
2026-04-19 23:51 37.98257 -88.61835 39288 ft 531 kts 108°
2026-04-19 23:51 37.96041 -88.52908 39280 ft 531 kts 108°
2026-04-19 23:52 37.93833 -88.44043 39267 ft 531 kts 108°
2026-04-19 23:52 37.91603 -88.35117 39272 ft 532 kts 108°
2026-04-19 23:53 37.89358 -88.26179 39274 ft 532 kts 108°
2026-04-19 23:53 37.87105 -88.17266 39279 ft 532 kts 108°
2026-04-19 23:54 37.84840 -88.08330 39296 ft 533 kts 109°
2026-04-19 23:54 37.82580 -87.99416 39288 ft 533 kts 109°
2026-04-19 23:55 37.80686 -87.91997 39285 ft 533 kts 109°
2026-04-19 23:55 37.78407 -87.83082 39278 ft 533 kts 109°
2026-04-19 23:56 37.76125 -87.74172 39276 ft 533 kts 109°
2026-04-19 23:56 37.73835 -87.65266 39277 ft 533 kts 109°
2026-04-19 23:57 37.71520 -87.56321 39279 ft 533 kts 109°
2026-04-19 23:57 37.69243 -87.47548 39280 ft 533 kts 109°
2026-04-19 23:58 37.66930 -87.38648 39260 ft 533 kts 109°
2026-04-19 23:58 37.64609 -87.29767 39274 ft 533 kts 110°
2026-04-19 23:59 37.62282 -87.20877 39277 ft 533 kts 110°
2026-04-19 23:59 37.59954 -87.11993 39284 ft 533 kts 110°
2026-04-20 00:00 37.57611 -87.03115 39285 ft 533 kts 110°
2026-04-20 00:00 37.55254 -86.94242 39284 ft 533 kts 110°
2026-04-20 00:01 37.52907 -86.85440 39290 ft 533 kts 110°
2026-04-20 00:02 37.49365 -86.72167 39288 ft 533 kts 110°
2026-04-20 00:02 37.46998 -86.63339 39287 ft 532 kts 110°
2026-04-20 00:03 37.44627 -86.54507 39297 ft 532 kts 110°
2026-04-20 00:03 37.42254 -86.45680 39250 ft 532 kts 111°
2026-04-20 00:04 37.39870 -86.36869 39267 ft 532 kts 111°
2026-04-20 00:04 37.37473 -86.28070 39276 ft 532 kts 111°
2026-04-20 00:05 37.35068 -86.19266 39279 ft 532 kts 111°
2026-04-20 00:05 37.32681 -86.10521 39286 ft 532 kts 111°
2026-04-20 00:06 37.30277 -86.01734 39289 ft 532 kts 111°
2026-04-20 00:06 37.27859 -85.92964 39290 ft 532 kts 111°
2026-04-20 00:07 37.25428 -85.84187 39301 ft 532 kts 111°
2026-04-20 00:07 37.22994 -85.75416 39293 ft 531 kts 111°
2026-04-20 00:08 37.20564 -85.66654 39294 ft 531 kts 111°
2026-04-20 00:08 37.18143 -85.57959 39288 ft 531 kts 112°
2026-04-20 00:09 37.15671 -85.49165 39295 ft 531 kts 112°
2026-04-20 00:09 37.13231 -85.40489 39272 ft 531 kts 112°
2026-04-20 00:10 37.10782 -85.31768 39290 ft 531 kts 112°
2026-04-20 00:10 37.08325 -85.23048 39298 ft 530 kts 112°
2026-04-20 00:11 37.05863 -85.14356 39306 ft 530 kts 112°
2026-04-20 00:11 37.03389 -85.05668 39192 ft 526 kts 112°
2026-04-20 00:11 37.02170 -85.01385 38923 ft 518 kts 113°
2026-04-20 00:12 37.00972 -84.97178 38596 ft 510 kts 113°
2026-04-20 00:12 36.99783 -84.93025 38266 ft 502 kts 113°
2026-04-20 00:12 36.98615 -84.88949 37945 ft 495 kts 113°
2026-04-20 00:12 36.97456 -84.84914 37631 ft 488 kts 113°
2026-04-20 00:13 36.96315 -84.80947 37307 ft 482 kts 113°
2026-04-20 00:13 36.95186 -84.77030 36971 ft 476 kts 114°
2026-04-20 00:13 36.94065 -84.73142 36516 ft 475 kts 113°
2026-04-20 00:13 36.92946 -84.69264 36038 ft 473 kts 114°
2026-04-20 00:14 36.91829 -84.65408 35563 ft 472 kts 114°
2026-04-20 00:14 36.90722 -84.61598 35103 ft 472 kts 114°
2026-04-20 00:14 36.89603 -84.57747 34633 ft 472 kts 114°
2026-04-20 00:14 36.88486 -84.53899 34161 ft 471 kts 114°
2026-04-20 00:15 36.87370 -84.50050 33614 ft 471 kts 114°
2026-04-20 00:15 36.86257 -84.46219 33027 ft 470 kts 114°
2026-04-20 00:15 36.85140 -84.42382 32506 ft 469 kts 114°
2026-04-20 00:15 36.84030 -84.38558 31996 ft 468 kts 114°
2026-04-20 00:16 36.82922 -84.34754 31506 ft 466 kts 113°
2026-04-20 00:16 36.81811 -84.30954 31012 ft 465 kts 113°
2026-04-20 00:16 36.80698 -84.27163 30512 ft 464 kts 114°
2026-04-20 00:16 36.79590 -84.23393 29978 ft 462 kts 114°
2026-04-20 00:17 36.78483 -84.19634 29408 ft 460 kts 114°
2026-04-20 00:17 36.77379 -84.15889 28853 ft 459 kts 113°
2026-04-20 00:17 36.76282 -84.12163 28307 ft 457 kts 113°
2026-04-20 00:17 36.75185 -84.08440 27773 ft 456 kts 113°
2026-04-20 00:18 36.74093 -84.04738 27242 ft 455 kts 113°
2026-04-20 00:18 36.73000 -84.01047 26721 ft 453 kts 113°
2026-04-20 00:18 36.71910 -83.97372 26220 ft 452 kts 113°
2026-04-20 00:18 36.70818 -83.93700 25717 ft 451 kts 113°
2026-04-20 00:19 36.69731 -83.90043 25345 ft 450 kts 113°
2026-04-20 00:19 36.68645 -83.86389 25217 ft 450 kts 113°
2026-04-20 00:19 36.67572 -83.82776 25249 ft 451 kts 113°
2026-04-20 00:19 36.66483 -83.79113 25247 ft 451 kts 113°
2026-04-20 00:20 36.65390 -83.75454 25245 ft 451 kts 113°
2026-04-20 00:20 36.64297 -83.71798 25243 ft 451 kts 113°
2026-04-20 00:20 36.63204 -83.68139 25243 ft 451 kts 113°
2026-04-20 00:20 36.62109 -83.64481 25243 ft 451 kts 113°
2026-04-20 00:21 36.61010 -83.60828 25242 ft 451 kts 113°
2026-04-20 00:21 36.59909 -83.57174 25242 ft 451 kts 113°
2026-04-20 00:21 36.58807 -83.53518 25240 ft 451 kts 113°
2026-04-20 00:21 36.57706 -83.49870 25239 ft 451 kts 114°
2026-04-20 00:22 36.56605 -83.46215 25197 ft 451 kts 114°
2026-04-20 00:22 36.55500 -83.42554 25196 ft 451 kts 114°
2026-04-20 00:22 36.54398 -83.38903 25203 ft 451 kts 114°
2026-04-20 00:22 36.53296 -83.35247 25210 ft 451 kts 114°
2026-04-20 00:23 36.52194 -83.31598 25216 ft 451 kts 114°
2026-04-20 00:23 36.51090 -83.27947 25216 ft 451 kts 114°
2026-04-20 00:23 36.49982 -83.24299 25218 ft 451 kts 114°
2026-04-20 00:23 36.48870 -83.20650 25219 ft 451 kts 114°
2026-04-20 00:24 36.47758 -83.17008 25222 ft 451 kts 114°
2026-04-20 00:24 36.46643 -83.13357 25222 ft 451 kts 114°
2026-04-20 00:24 36.45525 -83.09715 25221 ft 451 kts 114°
2026-04-20 00:24 36.44404 -83.06074 25224 ft 451 kts 114°
2026-04-20 00:25 36.43301 -83.02483 25226 ft 451 kts 114°
2026-04-20 00:25 36.42186 -82.98845 25228 ft 451 kts 114°
2026-04-20 00:25 36.41072 -82.95211 25229 ft 451 kts 114°
2026-04-20 00:25 36.39954 -82.91571 25231 ft 451 kts 114°
2026-04-20 00:26 36.38839 -82.87943 25233 ft 451 kts 114°
2026-04-20 00:26 36.37717 -82.84307 25233 ft 450 kts 114°
2026-04-20 00:26 36.36594 -82.80679 25236 ft 451 kts 114°
2026-04-20 00:26 36.35472 -82.77048 25232 ft 450 kts 114°
2026-04-20 00:27 36.34348 -82.73422 25232 ft 450 kts 115°
2026-04-20 00:27 36.33221 -82.69791 25231 ft 451 kts 115°
2026-04-20 00:27 36.32096 -82.66165 25231 ft 451 kts 114°
2026-04-20 00:27 36.30974 -82.62539 25230 ft 451 kts 114°
2026-04-20 00:28 36.29853 -82.58911 25228 ft 451 kts 114°
2026-04-20 00:28 36.28728 -82.55287 25222 ft 451 kts 115°
2026-04-20 00:28 36.27598 -82.51657 25220 ft 451 kts 115°
2026-04-20 00:28 36.26466 -82.48031 25181 ft 451 kts 115°
2026-04-20 00:29 36.25346 -82.44461 25185 ft 450 kts 115°
2026-04-20 00:29 36.24210 -82.40842 25190 ft 451 kts 115°
2026-04-20 00:29 36.23073 -82.37222 25177 ft 450 kts 115°
2026-04-20 00:29 36.21937 -82.33612 25195 ft 450 kts 115°
2026-04-20 00:30 36.20801 -82.30002 25204 ft 450 kts 115°
2026-04-20 00:30 36.19667 -82.26397 25206 ft 449 kts 115°
2026-04-20 00:30 36.18534 -82.22797 25207 ft 449 kts 115°
2026-04-20 00:30 36.17399 -82.19195 25204 ft 449 kts 115°
2026-04-20 00:31 36.16262 -82.15599 25207 ft 449 kts 115°
2026-04-20 00:31 36.15127 -82.12011 25206 ft 448 kts 115°
2026-04-20 00:31 36.13991 -82.08417 25192 ft 448 kts 115°
2026-04-20 00:31 36.12858 -82.04828 25193 ft 448 kts 115°
2026-04-20 00:32 36.11721 -82.01239 25191 ft 448 kts 115°
2026-04-20 00:32 36.10581 -81.97658 25190 ft 448 kts 115°
2026-04-20 00:32 36.09439 -81.94072 25179 ft 448 kts 115°
2026-04-20 00:32 36.08297 -81.90488 25179 ft 448 kts 115°
2026-04-20 00:33 36.07162 -81.86924 24981 ft 443 kts 115°
2026-04-20 00:33 36.06037 -81.83396 24740 ft 439 kts 115°
2026-04-20 00:33 36.04923 -81.79903 24488 ft 436 kts 115°
2026-04-20 00:33 36.03813 -81.76430 24264 ft 434 kts 115°
2026-04-20 00:34 36.02705 -81.72971 24034 ft 432 kts 115°
2026-04-20 00:34 36.01599 -81.69527 23800 ft 430 kts 115°
2026-04-20 00:34 36.00498 -81.66104 23537 ft 428 kts 115°
2026-04-20 00:34 35.99397 -81.62689 23254 ft 428 kts 115°
2026-04-20 00:35 35.98295 -81.59279 22983 ft 427 kts 115°
2026-04-20 00:35 35.97199 -81.55884 22711 ft 425 kts 115°
2026-04-20 00:35 35.96109 -81.52501 22437 ft 423 kts 114°
2026-04-20 00:35 35.95029 -81.49145 22070 ft 419 kts 114°
2026-04-20 00:36 35.93952 -81.45801 21494 ft 419 kts 115°
2026-04-20 00:36 35.92874 -81.42462 20955 ft 418 kts 114°
2026-04-20 00:36 35.91791 -81.39132 20398 ft 418 kts 114°
2026-04-20 00:36 35.90710 -81.35805 19852 ft 418 kts 114°
2026-04-20 00:37 35.89629 -81.32476 19297 ft 417 kts 114°
2026-04-20 00:37 35.88550 -81.29157 18755 ft 417 kts 113°
2026-04-20 00:37 35.87482 -81.25867 18411 ft 411 kts 114°
2026-04-20 00:37 35.86534 -81.22563 17900 ft 408 kts 107°
2026-04-20 00:38 35.85739 -81.19211 17381 ft 406 kts 107°
2026-04-20 00:38 35.84960 -81.15928 16934 ft 402 kts 107°
2026-04-20 00:38 35.84184 -81.12654 16202 ft 395 kts 107°
2026-04-20 00:38 35.83426 -81.09457 15731 ft 381 kts 107°
2026-04-20 00:39 35.82697 -81.06377 15314 ft 368 kts 107°
2026-04-20 00:39 35.81991 -81.03401 14901 ft 356 kts 107°
2026-04-20 00:39 35.81306 -81.00519 14493 ft 345 kts 108°
2026-04-20 00:39 35.80638 -80.97715 14099 ft 336 kts 108°
2026-04-20 00:40 35.79976 -80.94950 13673 ft 338 kts 108°
2026-04-20 00:40 35.79307 -80.92169 13269 ft 338 kts 107°
2026-04-20 00:40 35.78639 -80.89390 12863 ft 338 kts 107°
2026-04-20 00:40 35.77972 -80.86609 12448 ft 338 kts 107°
2026-04-20 00:41 35.77304 -80.83833 12047 ft 338 kts 106°
2026-04-20 00:41 35.76645 -80.81092 11628 ft 338 kts 106°
2026-04-20 00:41 35.75980 -80.78318 11200 ft 338 kts 105°
2026-04-20 00:41 35.75281 -80.75550 10751 ft 339 kts 111°
2026-04-20 00:42 35.74059 -80.73095 10309 ft 337 kts 134°
2026-04-20 00:42 35.72242 -80.71358 10053 ft 325 kts 156°
2026-04-20 00:42 35.70313 -80.70524 9931 ft 307 kts 175°
2026-04-20 00:42 35.68239 -80.70407 9664 ft 294 kts 189°
2026-04-20 00:43 35.66209 -80.70533 9297 ft 291 kts 188°
2026-04-20 00:43 35.64189 -80.70666 8931 ft 289 kts 187°
2026-04-20 00:43 35.62187 -80.70355 8549 ft 294 kts 166°
2026-04-20 00:43 35.60252 -80.69560 8212 ft 291 kts 163°
2026-04-20 00:44 35.58383 -80.68743 8092 ft 279 kts 163°
2026-04-20 00:44 35.56588 -80.67957 7917 ft 270 kts 162°
2026-04-20 00:44 35.54865 -80.67206 7660 ft 265 kts 162°
2026-04-20 00:44 35.53712 -80.66709 7453 ft 264 kts 162°
2026-04-20 00:45 35.51986 -80.65979 7199 ft 258 kts 162°
2026-04-20 00:45 35.49827 -80.65078 6917 ft 240 kts 162°
2026-04-20 00:45 35.48258 -80.64437 6534 ft 236 kts 162°
2026-04-20 00:45 35.46710 -80.63818 6146 ft 232 kts 162°
2026-04-20 00:46 35.45213 -80.63223 5877 ft 222 kts 162°
2026-04-20 00:46 35.44224 -80.62832 5594 ft 218 kts 163°
2026-04-20 00:46 35.42734 -80.62651 5062 ft 215 kts 188°
2026-04-20 00:46 35.41279 -80.62904 4521 ft 213 kts 192°
2026-04-20 00:47 35.39816 -80.63211 3990 ft 213 kts 193°
2026-04-20 00:47 35.38362 -80.63521 3632 ft 205 kts 193°
2026-04-20 00:47 35.36985 -80.63815 3224 ft 202 kts 193°
2026-04-20 00:47 35.35585 -80.64115 2780 ft 201 kts 193°
2026-04-20 00:48 35.34223 -80.64407 2353 ft 201 kts 193°
2026-04-20 00:48 35.32874 -80.64692 2187 ft 194 kts 192°
2026-04-20 00:48 35.31550 -80.64975 2186 ft 193 kts 193°
2026-04-20 00:48 35.30269 -80.65246 2193 ft 192 kts 194°
2026-04-20 00:49 35.29130 -80.65831 2177 ft 169 kts 224°
2026-04-20 00:49 35.28431 -80.66880 2186 ft 154 kts 252°
2026-04-20 00:49 35.28204 -80.68096 2207 ft 142 kts 276°
2026-04-20 00:49 35.28387 -80.69233 2206 ft 133 kts 297°
2026-04-20 00:50 35.28727 -80.70275 2195 ft 131 kts 296°
2026-04-20 00:50 35.29054 -80.71305 2193 ft 128 kts 296°
2026-04-20 00:50 35.29409 -80.72281 2180 ft 123 kts 311°
2026-04-20 00:50 35.30123 -80.72800 2189 ft 124 kts 351°
2026-04-20 00:51 35.30995 -80.72656 2068 ft 127 kts
2026-04-20 00:51 35.31853 -80.72457 1882 ft 125 kts
2026-04-20 00:51 35.32703 -80.72266 1674 ft 124 kts
2026-04-20 00:51 35.33560 -80.72084 1489 ft 126 kts
2026-04-20 00:52 35.34426 -80.71875 1269 ft 127 kts
2026-04-20 00:52 35.35282 -80.71694 1153 ft 126 kts
2026-04-20 00:52 35.36147 -80.71513 1024 ft 126 kts
2026-04-20 00:52 35.37015 -80.71315 852 ft 127 kts 11°
2026-04-20 00:53 35.37792 -80.71141 699 ft 125 kts 11°
2026-04-20 00:53 35.38574 -80.70958 666 ft 80 kts 10°
2026-04-20 00:53 35.38846 -80.70897 670 ft 12 kts 11°
2026-04-20 00:53 35.38900 -80.70932 668 ft 10 kts 286°
2026-04-20 00:54 35.38908 -80.70989 666 ft 3 kts 275°
2026-04-20 00:54 35.38906 -80.71000 668 ft 1 kts 255°
2026-04-20 00:54 35.38877 -80.71029 668 ft 9 kts 201°
2026-04-20 00:54 35.38816 -80.71041 668 ft 9 kts 189°
2026-04-20 00:55 35.38752 -80.71056 667 ft 9 kts 191°
2026-04-20 00:55 35.38691 -80.71071 667 ft 9 kts 191°
2026-04-20 00:55 35.38637 -80.71083 668 ft 7 kts 190°
2026-04-20 00:55 35.38566 -80.71098 669 ft 11 kts 191°
2026-04-20 00:56 35.38500 -80.71113 669 ft 6 kts 190°
2026-04-20 00:56 35.38462 -80.71128 668 ft 5 kts 231°
2026-04-20 00:56 35.38459 -80.71173 667 ft 5 kts 296°
2026-04-20 00:56 35.38482 -80.71199 667 ft 2 kts 321°
2026-04-20 00:57 35.38484 -80.71202 667 ft 0 kts 321°